Location: Alphen
(52.1351°N, 4.6549°E)
Time: 01:54:56
(UTC+00:00)

Cosmos 2034 Rocket - Pass Details

Date: 27 January 2021
Orbit: 957 x 1001 km, 82.9° (Epoch: 27 February)

Event Time Altitude Azimuth Distance (km) Brightness Sun altitude
Rises 04:49:25 0° 191° (S) 3,714 6.9 -24.3°
Reaches altitude 10° 04:51:56 10° 192° (SSW) 2,767 6.2 -23.9°
Maximum altitude 04:58:19 81° 281° (W) 1,016 3.9 -22.9°
Drops below altitude 10° 05:04:42 10° 9° (N) 2,767 6.4 -22.0°
Sets 05:07:14 0° 10° (N) 3,714 7.1 -21.6°
